EW6851 Weather Reports


Display with metric or nautical units.
time (UTC)temp
F
wind
direction
speed
MPH
gust
MPH
rain 1hr
in
rain 24hr
in
rain mn
in
humidity
%
barometer
mb
20260507020702 68 200 0.0 5.0 0.00 0.00 0.00 41 1012.0
20260507020156 68 221 2.0 7.0 0.00 0.00 0.00 41 1012.1
20260507015656 68 273 0.0 3.0 0.00 0.00 0.00 42 1012.1
20260507015156 68 273 0.0 1.0 0.00 0.00 0.00 42 1012.0
20260507014659 68 273 0.0 4.0 0.00 0.00 0.00 43 1012.2
20260507014156 68 355 0.0 2.0 0.00 0.00 0.00 43 1012.0
20260507013656 68 44 1.0 3.0 0.00 0.00 0.00 42 1012.0
20260507013156 68 5 0.0 2.0 0.00 0.00 0.00 43 1012.0
20260507012659 68 5 0.0 4.0 0.00 0.00 0.00 43 1011.7
20260507012202 68 355 4.0 6.0 0.00 0.00 0.00 43 1011.4
20260507011656 68 36 0.0 0.0 0.00 0.00 0.00 43 1011.8
20260507011156 68 320 0.0 2.0 0.00 0.00 0.00 43 1012.1
20260507010702 68 254 1.0 3.0 0.00 0.00 0.00 43 1012.1
20260507010159 68 270 0.0 4.0 0.00 0.00 0.00 43 1012.1
20260507005702 68 221 2.0 5.0 0.00 0.00 0.00 43 1012.0
20260507005159 68 234 0.0 3.0 0.00 0.00 0.00 44 1011.8
20260507004656 68 275 1.0 4.0 0.00 0.00 0.00 44 1011.9
20260507004203 69 295 4.0 4.0 0.00 0.00 0.00 44 1012.0
20260507003657 69 11 0.0 0.0 0.00 0.00 0.00 43 1012.0
20260507003156 69 312 0.0 0.0 0.00 0.00 0.00 43 1011.8
20260507002659 69 312 0.0 0.0 0.00 0.00 0.00 43 1012.0
20260507002157 69 5 0.0 0.0 0.00 0.00 0.00 43 1011.9
20260507001659 69 276 0.0 1.0 0.00 0.00 0.00 43 1012.0
20260507001159 69 355 0.0 0.0 0.00 0.00 0.00 43 1012.1
20260507000656 69 292 0.0 0.0 0.00 0.00 0.00 43 1012.2
20260507000159 69 128 0.0 3.0 0.00 0.00 0.00 42 1012.2
20260506235657 69 173 0.0 5.0 0.00 0.00 0.00 43 1012.2
20260506235159 69 186 3.0 9.0 0.00 0.00 0.00 42 1012.2
20260506234656 69 188 5.0 10.0 0.00 0.00 0.00 42 1012.3
20260506234159 69 202 6.0 9.0 0.00 0.00 0.00 41 1012.2
20260506233700 70 219 5.0 13.0 0.00 0.00 0.00 40 1012.3
20260506233156 70 179 10.0 14.0 0.00 0.00 0.00 39 1012.3
20260506232656 70 200 14.0 14.0 0.00 0.00 0.00 39 1012.4
20260506232157 70 196 12.0 12.0 0.00 0.00 0.00 39 1012.4
20260506231700 70 199 11.0 14.0 0.00 0.00 0.00 37 1012.4
20260506231156 70 169 7.0 16.0 0.00 0.00 0.00 37 1012.3
20260506230656 70 197 10.0 18.0 0.00 0.00 0.00 38 1012.2
20260506230200 70 202 7.0 18.0 0.00 0.00 0.00 39 1012.2
20260506225656 70 188 13.0 20.0 0.00 0.00 0.00 39 1012.1
20260506225157 70 200 12.0 20.0 0.00 0.00 0.00 40 1012.0
20260506224657 70 186 12.0 19.0 0.00 0.00 0.00 38 1012.0
20260506224157 70 155 8.0 19.0 0.00 0.00 0.00 38 1011.9
20260506223656 70 213 7.0 21.0 0.00 0.00 0.00 41 1012.1
20260506223156 70 163 5.0 16.0 0.00 0.00 0.00 42 1012.0
20260506222657 69 83 7.0 15.0 0.00 0.00 0.00 43 1012.0
20260506222200 69 218 0.0 2.0 0.00 0.00 0.00 42 1012.2
20260506221657 69 109 2.0 9.0 0.00 0.00 0.00 41 1012.2
20260506221157 68 126 3.0 11.0 0.00 0.00 0.00 43 1012.1
20260506220657 68 189 3.0 8.0 0.00 0.00 0.00 41 1012.1
20260506220200 68 182 3.0 10.0 0.00 0.00 0.00 42 1012.0
20260506215700 68 147 5.0 7.0 0.00 0.00 0.00 46 1012.1
20260506215200 68 248 4.0 4.0 0.00 0.00 0.00 47 1011.9
20260506214657 68 118 0.0 5.0 0.00 0.00 0.00 47 1011.9
20260506214200 67 119 5.0 6.0 0.00 0.00 0.00 47 1012.1
20260506213703 67 180 1.0 3.0 0.00 0.00 0.00 50 1012.2
20260506213157 67 175 2.0 3.0 0.00 0.00 0.00 50 1012.0
20260506212657 67 157 0.0 5.0 0.00 0.00 0.00 50 1012.0
20260506212157 68 190 2.0 5.0 0.00 0.00 0.00 50 1011.9
20260506211657 68 236 2.0 5.0 0.00 0.00 0.00 49 1011.8
20260506211157 68 235 3.0 5.0 0.00 0.00 0.00 48 1011.5
20260506210700 68 101 0.0 1.0 0.00 0.00 0.00 48 1011.2
20260506210157 68 101 0.0 2.0 0.00 0.00 0.00 47 1011.2
20260506205700 68 101 0.0 5.0 0.00 0.00 0.00 46 1011.2
20260506205200 68 150 2.0 3.0 0.00 0.00 0.00 47 1011.6
20260506204657 68 151 3.0 3.0 0.00 0.00 0.00 47 1011.8
20260506204157 68 208 2.0 5.0 0.00 0.00 0.00 46 1011.7
20260506203657 68 254 1.0 4.0 0.00 0.00 0.00 50 1011.9
20260506203157 68 284 0.0 4.0 0.00 0.00 0.00 53 1012.0
20260506202657 68 278 3.0 4.0 0.00 0.00 0.00 53 1011.9
20260506202200 68 314 0.0 0.0 0.00 0.00 0.00 53 1011.9
20260506201700 68 72 0.0 0.0 0.00 0.00 0.00 54 1012.0
20260506201157 68 72 0.0 2.0 0.00 0.00 0.00 54 1012.1
20260506200657 68 72 1.0 3.0 0.00 0.00 0.00 56 1012.3
20260506200200 68 142 3.0 4.0 0.00 0.00 0.00 55 1012.4
20260506195700 68 100 1.0 3.0 0.00 0.00 0.00 54 1012.4
20260506195157 69 109 1.0 3.0 0.00 0.00 0.00 45 1012.5
20260506194657 68 263 2.0 4.0 0.00 0.00 0.00 42 1012.7
20260506194203 68 355 0.0 4.0 0.00 0.00 0.00 54 1012.7
20260506193657 68 180 0.0 3.0 0.00 0.00 0.00 56 1012.7
20260506193203 68 148 3.0 3.0 0.00 0.00 0.00 56 1012.7
20260506192657 68 136 0.0 2.0 0.00 0.00 0.00 56 1012.5
20260506192157 69 171 0.0 3.0 0.00 0.00 0.00 54 1012.4
20260506191657 69 177 2.0 5.0 0.00 0.00 0.00 48 1012.6
20260506191157 69 181 1.0 6.0 0.00 0.00 0.00 43 1012.7
20260506190657 69 168 1.0 8.0 0.00 0.00 0.00 37 1012.7
20260506190158 69 178 7.0 9.0 0.00 0.00 0.00 41 1012.8
20260506185657 69 192 6.0 7.0 0.00 0.00 0.00 43 1012.8
20260506185207 69 169 5.0 8.0 0.00 0.00 0.00 44 1012.8
20260506184657 69 143 4.0 8.0 0.00 0.00 0.00 47 1012.8
20260506184157 69 157 2.0 9.0 0.00 0.00 0.00 50 1012.8
20260506183657 70 198 4.0 7.0 0.00 0.00 0.00 51 1012.8
20260506183157 70 186 3.0 7.0 0.00 0.00 0.00 52 1012.8
20260506182657 70 148 1.0 11.0 0.00 0.00 0.00 52 1012.8
20260506182203 70 211 6.0 11.0 0.00 0.00 0.00 52 1012.7
20260506181657 70 215 6.0 11.0 0.00 0.00 0.00 53 1012.7
20260506181200 70 216 4.0 6.0 0.00 0.00 0.00 57 1012.8
20260506180657 70 229 1.0 5.0 0.00 0.00 0.00 61 1012.8
20260506180200 70 229 0.0 3.0 0.00 0.00 0.00 61 1012.8
20260506175700 70 204 0.0 4.0 0.00 0.00 0.00 62 1012.7
20260506175157 70 256 0.0 3.0 0.00 0.00 0.00 62 1012.7
20260506174657 70 254 2.0 3.0 0.00 0.00 0.00 61 1012.7
20260506174200 70 229 3.0 4.0 0.00 0.00 0.00 61 1012.7
20260506173703 71 248 0.0 4.0 0.00 0.00 0.00 61 1012.5
20260506173206 71 261 3.0 4.0 0.00 0.00 0.00 61 1012.4
20260506172700 71 215 2.0 5.0 0.00 0.00 0.00 61 1012.4
20260506172200 71 263 1.0 4.0 0.00 0.00 0.00 61 1012.4
20260506171657 71 229 1.0 6.0 0.00 0.00 0.00 61 1012.5
20260506171203 71 213 3.0 6.0 0.00 0.00 0.00 62 1012.5
20260506170703 71 205 5.0 6.0 0.00 0.00 0.00 61 1012.5
20260506170157 71 259 1.0 5.0 0.00 0.00 0.00 62 1012.5
20260506165657 71 202 2.0 6.0 0.00 0.00 0.00 62 1012.7
20260506165203 71 220 4.0 7.0 0.00 0.00 0.00 62 1012.7
20260506164657 71 258 2.0 8.0 0.00 0.00 0.00 63 1012.8
20260506164200 71 333 3.0 7.0 0.00 0.00 0.00 63 1012.9
20260506163658 71 221 5.0 8.0 0.00 0.00 0.00 64 1012.9
20260506163206 71 250 8.0 8.0 0.00 0.00 0.00 63 1012.9
20260506162700 71 246 4.0 9.0 0.00 0.00 0.00 63 1012.8
20260506162157 71 238 6.0 9.0 0.00 0.00 0.00 65 1012.8
20260506161700 70 264 6.0 9.0 0.00 0.00 0.00 67 1012.8
20260506161157 70 264 4.0 8.0 0.00 0.00 0.00 69 1012.9
20260506160700 71 284 5.0 9.0 0.00 0.00 0.00 70 1013.0
20260506160200 71 213 7.0 9.0 0.00 0.00 0.00 70 1012.9
20260506155701 71 220 6.0 9.0 0.00 0.00 0.00 71 1013.0
20260506155200 71 236 5.0 10.0 0.00 0.00 0.00 70 1012.9
20260506154657 72 244 7.0 10.0 0.00 0.00 0.00 68 1012.9
20260506154203 73 228 9.0 11.0 0.00 0.00 0.00 65 1012.8
20260506153700 74 234 9.0 11.0 0.00 0.00 0.00 59 1012.7
20260506153157 74 202 5.0 10.0 0.00 0.00 0.00 51 1012.6
20260506152657 74 193 6.0 15.0 0.00 0.00 0.00 48 1012.4
20260506152203 75 172 5.0 16.0 0.00 0.00 0.00 47 1012.4
20260506151700 75 195 7.0 19.0 0.00 0.00 0.00 42 1012.4
20260506151203 76 174 5.0 11.0 0.00 0.00 0.00 40 1012.3
20260506150700 76 177 7.0 9.0 0.00 0.00 0.00 39 1012.2
20260506150206 76 182 7.0 9.0 0.00 0.00 0.00 43 1012.2
20260506145657 75 225 5.0 13.0 0.00 0.00 0.00 47 1012.2
20260506145157 76 227 10.0 16.0 0.00 0.00 0.00 46 1012.3
20260506144703 76 243 5.0 17.0 0.00 0.00 0.00 45 1012.2
20260506144157 76 192 11.0 14.0 0.00 0.00 0.00 46 1012.2
20260506143657 76 166 6.0 17.0 0.00 0.00 0.00 45 1012.2
20260506143157 77 230 10.0 18.0 0.00 0.00 0.00 45 1012.3
20260506142657 77 204 10.0 17.0 0.00 0.00 0.00 45 1012.2
20260506142200 77 223 8.0 16.0 0.00 0.00 0.00 47 1012.1
20260506141700 78 238 7.0 15.0 0.00 0.00 0.00 43 1012.0
20260506141206 78 211 3.0 14.0 0.00 0.00 0.00 41 1011.8
20260506140703 78 197 7.0 16.0 0.00 0.00 0.00 42 1011.7
20260506140200 78 191 6.0 15.0 0.00 0.00 0.00 44 1011.6
20260506135700 78 188 7.0 14.0 0.00 0.00 0.00 43 1011.5
20260506135200 78 227 7.0 16.0 0.00 0.00 0.00 39 1011.8
20260506134700 79 252 11.0 17.0 0.00 0.00 0.00 40 1011.9
20260506134158 79 210 12.0 16.0 0.00 0.00 0.00 40 1012.0
20260506133657 80 211 6.0 15.0 0.00 0.00 0.00 39 1012.0
20260506133157 80 254 5.0 17.0 0.00 0.00 0.00 39 1012.0
20260506132706 80 204 6.0 15.0 0.00 0.00 0.00 37 1011.9
20260506132157 80 175 10.0 13.0 0.00 0.00 0.00 36 1011.9
20260506131706 80 160 1.0 12.0 0.00 0.00 0.00 36 1011.9
20260506131157 80 151 3.0 17.0 0.00 0.00 0.00 37 1012.0
20260506130703 80 166 5.0 12.0 0.00 0.00 0.00 37 1012.0
20260506130157 80 139 9.0 15.0 0.00 0.00 0.00 37 1012.1
20260506125701 81 155 3.0 15.0 0.00 0.00 0.00 41 1012.2
20260506125157 81 203 6.0 9.0 0.00 0.00 0.00 41 1012.3
20260506124657 80 211 6.0 16.0 0.00 0.00 0.00 40 1012.3
20260506124157 82 208 9.0 15.0 0.00 0.00 0.00 39 1012.3
20260506123700 82 137 9.0 12.0 0.00 0.00 0.00 41 1012.4
20260506123203 82 217 8.0 11.0 0.00 0.00 0.00 41 1012.4
20260506122657 82 236 4.0 12.0 0.00 0.00 0.00 42 1012.4
20260506122157 81 118 0.0 4.0 0.00 0.00 0.00 44 1012.3
20260506121657 80 26 0.0 8.0 0.00 0.00 0.00 45 1012.3
20260506121157 80 26 4.0 9.0 0.00 0.00 0.00 46 1012.3
20260506120703 80 329 5.0 6.0 0.00 0.00 0.00 47 1012.3
20260506120157 80 314 4.0 10.0 0.00 0.00 0.00 47 1012.4
20260506115657 79 297 4.0 10.0 0.00 0.00 0.00 49 1012.4
20260506115203 79 17 4.0 9.0 0.00 0.00 0.00 48 1012.6
20260506114657 79 69 8.0 8.0 0.00 0.00 0.00 48 1012.7
20260506114203 78 65 7.0 10.0 0.00 0.00 0.00 48 1012.7
20260506113700 78 34 4.0 9.0 0.00 0.00 0.00 48 1012.8
20260506113157 78 16 5.0 9.0 0.00 0.00 0.00 48 1012.8
20260506112703 78 44 5.0 11.0 0.00 0.00 0.00 48 1012.8
20260506112200 78 53 4.0 9.0 0.00 0.00 0.00 48 1012.9
20260506111657 78 18 8.0 10.0 0.00 0.00 0.00 48 1013.1
20260506111200 78 343 6.0 10.0 0.00 0.00 0.00 48 1013.0
20260506110700 77 333 2.0 10.0 0.00 0.00 0.00 49 1013.1
20260506110200 77 0 4.0 9.0 0.00 0.00 0.00 48 1013.1
20260506105657 77 333 5.0 8.0 0.00 0.00 0.00 47 1013.2
20260506105157 77 11 2.0 7.0 0.00 0.00 0.00 47 1013.3
20260506104700 78 5 7.0 9.0 0.00 0.00 0.00 46 1013.3
20260506104157 79 64 4.0 10.0 0.00 0.00 0.00 45 1013.4
20260506103657 79 297 3.0 7.0 0.00 0.00 0.00 45 1013.3
20260506103157 79 14 3.0 7.0 0.00 0.00 0.00 44 1013.3
20260506102700 79 350 0.0 6.0 0.00 0.00 0.00 45 1013.4
20260506102200 78 82 0.0 5.0 0.00 0.00 0.00 45 1013.4
20260506101657 78 355 0.0 7.0 0.00 0.00 0.00 45 1013.5
20260506101157 77 337 5.0 6.0 0.00 0.00 0.00 46 1013.5
20260506100657 77 131 0.0 5.0 0.00 0.00 0.00 47 1013.6
20260506100200 77 44 5.0 5.0 0.00 0.00 0.00 46 1013.7
20260506095657 77 321 1.0 5.0 0.00 0.00 0.00 47 1013.7
20260506095157 76 26 1.0 5.0 0.00 0.00 0.00 48 1013.8
20260506094706 75 9 0.0 5.0 0.00 0.00 0.00 48 1013.8
20260506094200 76 5 1.0 5.0 0.00 0.00 0.00 48 1013.9
20260506093706 75 342 5.0 5.0 0.00 0.00 0.00 48 1014.0
20260506093203 75 5 0.0 4.0 0.00 0.00 0.00 47 1014.0
20260506092700 75 71 1.0 5.0 0.00 0.00 0.00 48 1014.0
20260506092157 75 27 4.0 5.0 0.00 0.00 0.00 48 1014.0
20260506091700 75 20 4.0 7.0 0.00 0.00 0.00 48 1014.1
20260506091200 75 350 2.0 6.0 0.00 0.00 0.00 49 1014.1
20260506090658 74 306 1.0 7.0 0.00 0.00 0.00 50 1014.1
20260506090204 74 326 2.0 7.0 0.00 0.00 0.00 50 1014.0
20260506085657 74 24 3.0 5.0 0.00 0.00 0.00 49 1014.1
20260506085157 74 37 0.0 2.0 0.00 0.00 0.00 51 1014.1
20260506084657 74 37 3.0 3.0 0.00 0.00 0.00 50 1014.1
20260506084203 74 49 0.0 4.0 0.00 0.00 0.00 49 1014.0
20260506083700 74 19 0.0 5.0 0.00 0.00 0.00 50 1013.9
20260506083200 74 51 0.0 5.0 0.00 0.00 0.00 46 1013.7
20260506082657 75 98 5.0 6.0 0.00 0.00 0.00 45 1013.9
20260506082157 76 40 4.0 6.0 0.00 0.00 0.00 44 1014.0
20260506081704 75 47 0.0 2.0 0.00 0.00 0.00 44 1014.1
20260506081201 75 47 0.0 3.0 0.00 0.00 0.00 44 1014.0
20260506080701 75 47 1.0 3.0 0.00 0.00 0.00 45 1014.1
20260506080158 75 27 2.0 4.0 0.00 0.00 0.00 44 1014.1
20260506073158 75 17 0.0 0.0 0.00 0.00 0.00 47 1014.2
20260506072707 74 250 0.0 0.0 0.00 0.00 0.00 47 1014.2
20260506072158 74 242 0.0 0.0 0.00 0.00 0.00 48 1014.3
20260506071658 73 188 0.0 0.0 0.00 0.00 0.00 50 1014.4
20260506071204 72 188 0.0 0.0 0.00 0.00 0.00 50 1014.4
20260506070704 72 187 0.0 4.0 0.00 0.00 0.00 51 1014.4
20260506070201 72 203 0.0 2.0 0.00 0.00 0.00 51 1014.5
20260506062207 70 117 0.0 0.0 0.00 0.00 0.00 60 1014.5
20260506061704 70 169 0.0 0.0 0.00 0.00 0.00 64 1014.4
20260506061207 69 163 0.0 0.0 0.00 0.00 0.00 65 1014.3
20260506060658 68 163 0.0 0.0 0.00 0.00 0.00 65 1014.3
20260506060207 67 163 0.0 0.0 0.00 0.00 0.00 66 1014.3
20260506051204 64 119 0.0 0.0 0.00 0.00 0.00 62 1013.3
20260506050701 64 119 0.0 0.0 0.00 0.00 0.00 61 1013.4
20260506050158 64 119 0.0 0.0 0.00 0.00 0.00 61 1013.3
20260506044702 64 119 0.0 0.0 0.00 0.00 0.00 61 1013.1
20260506044204 64 119 0.0 0.0 0.00 0.00 0.00 61 1013.1
20260506043658 64 119 0.0 0.0 0.00 0.00 0.00 60 1013.1
20260506043201 64 153 0.0 0.0 0.00 0.00 0.00 60 1013.0
20260506042658 64 116 0.0 0.0 0.00 0.00 0.00 59 1013.0
20260506042201 64 129 0.0 1.0 0.00 0.00 0.00 60 1013.0
20260506041701 64 129 0.0 0.0 0.00 0.00 0.00 60 1013.0
20260506041201 64 129 0.0 1.0 0.00 0.00 0.00 62 1013.0
20260506040704 64 129 0.0 0.0 0.00 0.00 0.00 62 1012.9
20260506040201 64 129 0.0 1.0 0.00 0.00 0.00 63 1012.8
20260506035658 64 129 0.0 3.0 0.00 0.00 0.00 64 1012.7
20260506035158 64 152 2.0 2.0 0.00 0.00 0.00 69 1012.6
20260506034658 65 64 0.0 2.0 0.00 0.00 0.00 70 1012.5
20260506034204 65 212 0.0 0.0 0.00 0.00 0.00 70 1012.7
20260506033659 65 212 0.0 0.0 0.00 0.00 0.00 78 1012.8
20260506033158 66 212 0.0 0.0 0.00 0.00 0.00 79 1012.8
20260506032701 66 212 0.0 2.0 0.00 0.00 0.00 79 1012.8
20260506032158 66 224 0.0 4.0 0.00 0.00 0.00 77 1012.9
20260506031701 67 231 2.0 5.0 0.00 0.00 0.00 76 1012.9
20260506031159 68 222 2.0 6.0 0.00 0.00 0.00 71 1012.8
20260506030658 68 286 2.0 2.0 0.00 0.00 0.00 64 1012.8
20260506030158 68 248 0.0 5.0 0.00 0.00 0.00 51 1012.7
20260506025658 68 205 1.0 8.0 0.00 0.00 0.00 46 1012.7
20260506025158 68 196 4.0 11.0 0.00 0.00 0.00 48 1012.7
20260506024704 68 225 10.0 10.0 0.00 0.00 0.00 57 1012.6
20260506024201 68 248 0.0 2.0 0.00 0.00 0.00 58 1012.6
20260506023704 68 281 2.0 3.0 0.00 0.00 0.00 54 1012.6
20260506023158 68 241 0.0 5.0 0.00 0.00 0.00 45 1012.6
20260506022701 68 271 1.0 5.0 0.00 0.00 0.00 45 1012.6
20260506022201 68 196 3.0 7.0 0.00 0.00 0.00 45 1012.6
20260506021707 68 277 3.0 5.0 0.00 0.00 0.00 46 1012.6
20260506021158 67 234 4.0 5.0 0.00 0.00 0.00 47 1012.6